[[{"header":{"parameterUnit":"m.s-1","parameterCategory":1,"la1":30.2991,"la2":30.254,"lo1":-89.0895,"lo2":-89.0444,"dy":0.0017,"dx":0.0017,"nx":28,"ny":28,"refTime":"2023-09-10T09:00:00:Z","depth":0,"parameterNumber":2,"parameterNumberName":"U-component_of_WINDS"},"data":[0,0,0,0,0,0,0,0,0,0,0,0,0,0,0,0,0,0,0,0,0,0,0,0,0,0,0,0,0,0,0,0,0,0,0,0,0,0,0,0,0,0,0,0,0,0,0,0,0,0,0,0,0,0,0,0,0,0,-0.7221,-0.7221,0,-0.7205,-0.7205,-0.7205,-0.7165,-0.7164,-0.7163,-0.7163,-0.7148,-0.7149,-0.7149,0,0,0,0,0,0,0,0,0,0,0,0,0,-0.7218,-0.7218,-0.7221,-0.7221,-0.722,-0.7205,-0.7205,-0.7205,-0.7165,-0.7164,-0.7163,-0.7162,-0.7148,-0.7149,-0.7149,0,0,0,0,0,0,0,0,0,0,0,0,0,-0.7212,-0.7218,-0.7221,-0.7199,-0.7197,-0.7205,-0.7205,-0.7205,-0.7166,-0.7164,-0.7163,-0.7162,-0.7148,-0.7149,-0.7149,-0.7178,0,0,-0.7151,-0.7151,0,0,0,0,0,0,0,0,-0.7213,-0.7213,-0.7202,-0.72,-0.7198,-0.7186,-0.7199,-0.7196,-0.7166,-0.7177,-0.7163,-0.7161,-0.7162,-0.7161,-0.7161,-0.7178,-0.7177,-0.7151,-0.7152,-0.7152,-0.7152,0,0,0,0,0,0,0,-0.7213,-0.7213,-0.7215,-0.7202,-0.72,-0.719,-0.7188,-0.7198,-0.7177,-0.7176,-0.7173,-0.7172,-0.7161,-0.7161,-0.7161,-0.7177,-0.7151,-0.7152,-0.7152,-0.7152,-0.7217,-0.7218,0,0,0,0,0,0,-0.7217,-0.7214,-0.7215,-0.7214,-0.7202,-0.7191,-0.7189,-0.7191,-0.7177,-0.7173,-0.7173,-0.717,-0.716,-0.716,-0.716,-0.7194,-0.7152,-0.7152,-0.7153,-0.7215,-0.7217,-0.7219,0,0,0,0,0,0,-0.7217,-0.7217,-0.7216,-0.7213,-0.7212,-0.7193,-0.7195,-0.7191,-0.7191,-0.7174,-0.7171,-0.7177,-0.7159,-0.7159,-0.7174,-0.7193,-0.7153,-0.7153,-0.7214,-0.7216,-0.7218,-0.7261,0,0,0,0,0,0,-0.7217,-0.7217,-0.7228,-0.7214,-0.7212,-0.723,-0.7196,-0.7192,-0.7192,-0.7189,-0.7177,-0.7174,-0.7158,-0.7173,-0.7175,-0.7193,-0.7154,-0.7212,-0.7215,-0.7217,-0.7258,-0.7264,-0.727,0,0,0,0,0,-0.7217,-0.7241,-0.7229,-0.7229,-0.7225,-0.7231,-0.723,-0.7211,-0.7194,-0.7205,-0.7194,-0.7174,-0.719,-0.7175,-0.7176,-0.7195,-0.7211,-0.7214,-0.7217,-0.7255,-0.7263,-0.7269,0,0,0,0,0,0,-0.7259,-0.7239,-0.7225,-0.7245,-0.724,-0.7224,-0.7237,-0.722,-0.722,-0.7217,-0.7194,-0.7191,-0.721,-0.7203,-0.7187,-0.7222,-0.7197,-0.7201,-0.7226,-0.7233,-0.7239,-0.7241,-0.7154,0,0,0,0,0,-0.727,-0.7276,-0.7258,-0.7278,-0.7276,-0.7257,-0.7259,-0.7245,-0.7239,-0.7237,-0.7226,-0.7222,-0.7226,-0.7229,-0.7231,-0.7256,-0.7254,-0.7269,-0.7275,-0.728,-0.7284,-0.7297,-0.7304,-0.7228,-0.7228,-0.7228,0,0,-0.7294,-0.7284,-0.7289,-0.7286,-0.7281,-0.7288,-0.7256,-0.7265,-0.727,-0.7238,-0.7252,-0.7244,-0.7237,-0.7258,-0.7266,-0.7253,-0.7304,-0.7284,-0.7288,-0.7289,-0.7301,-0.7308,-0.7315,-0.7231,-0.723,-0.723,0,0,-0.7342,-0.7335,-0.735,-0.7345,-0.7337,-0.7324,-0.7328,-0.7314,-0.7308,-0.7321,-0.7297,-0.7303,-0.731,-0.7307,-0.7306,-0.7352,-0.7334,-0.7353,-0.7384,-0.7398,-0.7404,-0.7409,-0.7426,-0.7432,-0.7356,-0.7356,-0.7357,0,-0.7374,-0.7383,-0.7361,-0.7371,-0.7371,-0.7341,-0.7357,-0.7353,-0.7347,-0.7347,-0.7332,-0.7341,-0.7334,-0.7353,-0.7364,-0.7364,-0.7368,-0.7355,-0.7404,-0.7409,-0.7414,-0.743,-0.7437,-0.7359,-0.7359,-0.7358,-0.7358,0,-0.7422,-0.7429,-0.7443,-0.7436,-0.7437,-0.7451,-0.7431,-0.7434,-0.742,-0.7409,-0.7423,-0.7413,-0.7414,-0.7417,-0.7403,-0.7434,-0.7427,-0.7408,-0.7383,-0.7424,-0.7439,-0.7445,-0.7362,-0.7362,-0.7361,-0.736,0,0,-0.7498,-0.7478,-0.7484,-0.748,-0.7468,-0.7474,-0.7485,-0.7485,-0.7489,-0.7485,-0.7495,-0.7501,-0.7484,-0.7483,-0.7469,-0.748,-0.7518,-0.746,-0.746,-0.7472,-0.7553,-0.7567,-0.7575,-0.7505,-0.7507,-0.7507,-0.7554,0,-0.7543,-0.7562,-0.7543,-0.7566,-0.7572,-0.7544,-0.7554,-0.7548,-0.7538,-0.7542,-0.7531,-0.7536,-0.7513,-0.7512,-0.7522,-0.7511,-0.7534,-0.7507,-0.7516,-0.7516,-0.752,-0.7583,-0.7598,-0.7642,-0.7559,-0.756,-0.7561,0,-0.76,-0.7598,-0.7622,-0.7608,-0.761,-0.762,-0.7618,-0.7622,-0.7615,-0.7607,-0.7605,-0.7587,-0.7598,-0.7573,-0.7588,-0.7571,-0.7573,-0.7568,-0.7569,-0.757,-0.7542,-0.7587,-0.7656,-0.7663,-0.757,-0.7569,-0.7568,0,-0.7654,-0.7657,-0.7672,-0.767,-0.7654,-0.7662,-0.7656,-0.7647,-0.7648,-0.7647,-0.7647,-0.7647,-0.7648,-0.7648,-0.7631,-0.7613,-0.7649,-0.7621,-0.7643,-0.7644,-0.7653,-0.7653,-0.7725,-0.7652,-0.7652,-0.7652,-0.7652,0,-0.7708,-0.7724,-0.7696,-0.7705,-0.7722,-0.7699,-0.7717,-0.7708,-0.77,-0.7708,-0.7683,-0.7691,-0.7666,-0.7672,-0.7658,-0.7673,-0.7673,-0.7668,-0.7664,-0.7671,-0.7672,-0.7673,-0.767,-0.7654,-0.7653,-0.7653,-0.7653,0,-0.7772,-0.7753,-0.7768,-0.7751,-0.7748,-0.7761,-0.7748,-0.7756,-0.7743,-0.7753,-0.7754,-0.7735,-0.774,-0.7722,-0.7724,-0.7714,-0.7738,-0.7728,-0.774,-0.7738,-0.7761,-0.776,-0.7838,-0.7847,-0.7767,-0.7768,-0.7768,0,-0.7808,-0.782,-0.7805,-0.7808,-0.7803,-0.7808,-0.7808,-0.7786,-0.7788,-0.778,-0.779,-0.7792,-0.7793,-0.7802,-0.7789,-0.779,-0.7781,-0.7808,-0.7782,-0.7788,-0.7783,-0.7784,-0.7785,-0.7815,-0.7816,-0.7817,-0.7817,0,-0.7876,-0.7866,-0.7868,-0.7866,-0.7868,-0.7866,-0.7862,-0.7866,-0.7842,-0.7845,-0.7849,-0.785,-0.7852,-0.7855,-0.7853,-0.7847,-0.7829,-0.7825,-0.7831,-0.7839,-0.7845,-0.7843,-0.7757,-0.7824,-0.7823,-0.7823,-0.7823,-0.7822,-0.7928,-0.7937,-0.7927,-0.793,-0.7925,-0.7922,-0.7929,-0.7917,-0.792,-0.7919,-0.7906,-0.7913,-0.7905,-0.7901,-0.7897,-0.7903,-0.789,-0.7898,-0.79,-0.7902,-0.7907,-0.7843,-0.7902,-0.7902,-0.7902,-0.7901,-0.7901,0,-0.7995,-0.7987,-0.799,-0.7985,-0.7988,-0.7968,-0.7963,-0.7967,-0.7973,-0.7967,-0.7968,-0.7973,-0.7976,-0.7963,-0.7964,-0.7971,-0.7963,-0.7972,-0.7972,-0.7971,-0.7917,-0.7913,-0.7979,-0.7979,-0.7979,-0.7979,-0.7979,-0.7979,-0.803,-0.8045,-0.8034,-0.8045,-0.8037,-0.8044,-0.8043,-0.804,-0.8035,-0.8042,-0.8044,-0.8035,-0.8026,-0.8026,-0.8028,-0.8024,-0.8026,-0.8039,-0.8032,-0.7983,-0.7975,-0.7968,-0.7964,-0.8039,-0.8039,-0.8086,-0.8086,-0.8087]},{"header":{"parameterUnit":"m.s-1","parameterCategory":1,"la1":30.2991,"la2":30.254,"lo1":-89.0895,"lo2":-89.0444,"dy":0.0017,"dx":0.0017,"nx":28,"ny":28,"refTime":"2023-09-10T09:00:00:Z","depth":0,"parameterNumber":3,"parameterNumberName":"V-component_of_WINDS"},"data":[0,0,0,0,0,0,0,0,0,0,0,0,0,0,0,0,0,0,0,0,0,0,0,0,0,0,0,0,0,0,0,0,0,0,0,0,0,0,0,0,0,0,0,0,0,0,0,0,0,0,0,0,0,0,0,0,0,0,-3.3553,-3.3553,0,-3.359,-3.3591,-3.3591,-3.3556,-3.3554,-3.3553,-3.3551,-3.3587,-3.3589,-3.3591,0,0,0,0,0,0,0,0,0,0,0,0,0,-3.3447,-3.3449,-3.3553,-3.3553,-3.3553,-3.359,-3.3591,-3.3591,-3.3556,-3.3554,-3.3552,-3.3551,-3.3586,-3.3589,-3.3591,0,0,0,0,0,0,0,0,0,0,0,0,0,-3.349,-3.345,-3.3552,-3.354,-3.354,-3.359,-3.3591,-3.3591,-3.3556,-3.3554,-3.3552,-3.355,-3.3585,-3.3588,-3.3592,-3.3655,0,0,-3.3602,-3.3604,0,0,0,0,0,0,0,0,-3.3487,-3.3494,-3.3542,-3.3541,-3.3541,-3.3566,-3.3567,-3.3613,-3.3557,-3.355,-3.3551,-3.3549,-3.3581,-3.3585,-3.3597,-3.3657,-3.3658,-3.3602,-3.3604,-3.3606,-3.3607,0,0,0,0,0,0,0,-3.3484,-3.3492,-3.3567,-3.3542,-3.3542,-3.3532,-3.3536,-3.3575,-3.3577,-3.355,-3.3548,-3.3553,-3.3581,-3.3593,-3.3597,-3.3659,-3.3602,-3.3605,-3.3607,-3.3609,-3.3774,-3.3776,0,0,0,0,0,0,-3.3483,-3.349,-3.3566,-3.3568,-3.3508,-3.3536,-3.354,-3.356,-3.3576,-3.3577,-3.3555,-3.3551,-3.3589,-3.3593,-3.3598,-3.3675,-3.3606,-3.3609,-3.3611,-3.3772,-3.3775,-3.3777,0,0,0,0,0,0,-3.3481,-3.349,-3.3565,-3.3528,-3.3537,-3.354,-3.3563,-3.3562,-3.3575,-3.358,-3.358,-3.3568,-3.3587,-3.3593,-3.3642,-3.3675,-3.3611,-3.3614,-3.3769,-3.3773,-3.3776,-3.3827,0,0,0,0,0,0,-3.3478,-3.349,-3.3515,-3.3529,-3.3539,-3.3608,-3.3565,-3.3564,-3.3581,-3.3577,-3.3592,-3.3592,-3.3586,-3.3637,-3.3645,-3.3679,-3.3616,-3.3766,-3.3771,-3.3775,-3.3823,-3.3832,-3.384,0,0,0,0,0,-3.3475,-3.3526,-3.3516,-3.3525,-3.357,-3.361,-3.3616,-3.3609,-3.3584,-3.3608,-3.3612,-3.3592,-3.367,-3.3642,-3.3651,-3.3686,-3.3764,-3.3769,-3.3774,-3.3819,-3.383,-3.384,0,0,0,0,0,0,-3.3514,-3.3528,-3.3517,-3.3575,-3.3592,-3.3604,-3.3635,-3.3621,-3.3644,-3.3639,-3.3628,-3.3632,-3.3683,-3.3689,-3.3658,-3.3749,-3.3713,-3.372,-3.3743,-3.3755,-3.3763,-3.3761,-3.3619,0,0,0,0,0,-3.353,-3.3562,-3.3572,-3.3623,-3.3632,-3.3632,-3.3649,-3.3643,-3.3659,-3.3666,-3.3673,-3.3689,-3.3717,-3.3736,-3.3762,-3.3823,-3.3826,-3.3852,-3.3861,-3.3868,-3.3875,-3.3908,-3.392,-3.3795,-3.3795,-3.3794,0,0,-3.3562,-3.3574,-3.3595,-3.3631,-3.3643,-3.3677,-3.3638,-3.3675,-3.3699,-3.3671,-3.3718,-3.3723,-3.374,-3.3796,-3.3821,-3.3803,-3.391,-3.3875,-3.388,-3.3883,-3.3915,-3.3927,-3.3938,-3.3798,-3.3798,-3.3797,0,0,-3.3638,-3.365,-3.3694,-3.3708,-3.3728,-3.3728,-3.3739,-3.3754,-3.3757,-3.3804,-3.3783,-3.3812,-3.3861,-3.3874,-3.3887,-3.397,-3.3953,-3.3979,-3.4026,-3.4059,-3.4069,-3.4077,-3.4108,-3.4119,-3.3985,-3.3986,-3.3986,0,-3.3676,-3.3726,-3.3718,-3.3757,-3.3774,-3.3751,-3.3796,-3.3809,-3.3836,-3.3848,-3.3827,-3.3889,-3.3899,-3.3958,-3.3978,-3.3989,-3.4001,-3.3978,-3.4068,-3.4077,-3.4085,-3.4114,-3.4125,-3.3989,-3.3988,-3.3988,-3.3988,0,-3.3772,-3.3807,-3.384,-3.3869,-3.3889,-3.393,-3.3928,-3.395,-3.3941,-3.3943,-3.3992,-3.4003,-3.4032,-3.4045,-3.4036,-3.4103,-3.4091,-3.407,-3.4033,-3.41,-3.4127,-3.4138,-3.3993,-3.3992,-3.3991,-3.399,0,0,-3.3873,-3.3899,-3.3911,-3.3924,-3.3945,-3.3972,-3.4012,-3.4042,-3.4061,-3.408,-3.4114,-3.4156,-3.4137,-3.4152,-3.4144,-3.4173,-3.424,-3.4148,-3.4148,-3.4166,-3.4315,-3.4332,-3.4345,-3.4228,-3.423,-3.4232,-3.4314,0,-3.3951,-3.4023,-3.4018,-3.4085,-3.4118,-3.4098,-3.4133,-3.4149,-3.4152,-3.418,-3.4183,-3.4214,-3.4185,-3.4194,-3.4222,-3.4226,-3.427,-3.422,-3.4259,-3.4261,-3.4257,-3.4359,-3.4377,-3.4454,-3.4325,-3.4326,-3.4328,0,-3.4052,-3.4077,-3.4149,-3.4166,-3.4179,-3.4211,-3.4239,-3.4265,-3.4283,-3.4284,-3.4302,-3.4289,-3.433,-3.4292,-3.4348,-3.4314,-3.433,-3.4334,-3.4337,-3.4341,-3.4299,-3.4367,-3.4479,-3.4491,-3.4344,-3.4343,-3.4342,0,-3.4121,-3.4172,-3.4222,-3.4234,-3.4254,-3.4278,-3.4287,-3.4303,-3.4322,-3.4345,-3.4357,-3.4384,-3.44,-3.4421,-3.4416,-3.4389,-3.4473,-3.4435,-3.4475,-3.4475,-3.4494,-3.4493,-3.4611,-3.4503,-3.4502,-3.4502,-3.4502,0,-3.4209,-3.4254,-3.4253,-3.4284,-3.4334,-3.4327,-3.4376,-3.4382,-3.4397,-3.4428,-3.4411,-3.444,-3.4432,-3.4461,-3.4458,-3.4505,-3.4511,-3.4513,-3.4511,-3.4515,-3.4515,-3.4526,-3.4521,-3.4505,-3.4505,-3.4504,-3.4503,0,-3.4294,-3.4296,-3.4349,-3.4365,-3.437,-3.4406,-3.442,-3.4448,-3.445,-3.449,-3.4499,-3.4502,-3.4535,-3.4533,-3.457,-3.4568,-3.4626,-3.4618,-3.4621,-3.462,-3.466,-3.4657,-3.4789,-3.4807,-3.4687,-3.4688,-3.4689,0,-3.4351,-3.4385,-3.4406,-3.4427,-3.4438,-3.4471,-3.4491,-3.4485,-3.4506,-3.453,-3.4556,-3.4588,-3.4613,-3.4667,-3.4672,-3.4701,-3.4694,-3.4738,-3.4698,-3.4701,-3.4696,-3.4694,-3.4698,-3.4747,-3.4748,-3.4749,-3.475,0,-3.4452,-3.4452,-3.4481,-3.4511,-3.4536,-3.4559,-3.458,-3.4597,-3.4594,-3.4618,-3.4653,-3.4673,-3.4712,-3.4744,-3.4771,-3.478,-3.4765,-3.4763,-3.4774,-3.4778,-3.4779,-3.478,-3.4644,-3.476,-3.4759,-3.4758,-3.4757,-3.4757,-3.4526,-3.4556,-3.4576,-3.4609,-3.4625,-3.4646,-3.4674,-3.468,-3.471,-3.4742,-3.4737,-3.4776,-3.4793,-3.4829,-3.4841,-3.4871,-3.4855,-3.487,-3.4874,-3.4879,-3.4884,-3.4773,-3.4875,-3.4875,-3.4875,-3.4875,-3.4874,0,-3.4627,-3.4639,-3.467,-3.4701,-3.4728,-3.4712,-3.4735,-3.4758,-3.4794,-3.4812,-3.4838,-3.4879,-3.491,-3.4918,-3.4948,-3.4971,-3.4965,-3.4979,-3.4978,-3.498,-3.4896,-3.4884,-3.4984,-3.4984,-3.4984,-3.4984,-3.4983,-3.4983,-3.4683,-3.4734,-3.4736,-3.4794,-3.4805,-3.4845,-3.4859,-3.4878,-3.4893,-3.494,-3.4966,-3.4972,-3.4986,-3.5017,-3.5045,-3.5047,-3.5059,-3.5077,-3.5075,-3.4997,-3.4986,-3.4975,-3.4964,-3.5079,-3.5079,-3.5157,-3.5158,-3.5159]}]]